Tracking 28126 objects as of 2-Oct-2023
HD Live streaming from Space Station
objects crossing your sky now

OPS 1948

Track OPS 1948 now!
OPS 1948 is classified as:


NORAD ID: 11558
Int'l Code: 1979-086A
Perigee: 30,327.1 km
Apogee: 41,315.1 km
Inclination: 5.6 °
Period: 1,437.5 minutes
Semi major axis: 42192 km
RCS: Unknown
Launch date: October 1, 1979
Source: United States (US)
Launch site: AIR FORCE EASTERN TEST RANGE (AFETR)
Your satellite tracking list
Your tracking list is empty




NASA's NSSDC Master Catalog

Two Line Element Set (TLE):
1 11558U 79086A   23274.89285477 -.00000356  00000-0  00000-0 0  9993
2 11558   5.6231   2.9141 1302132  69.9843 196.9412  1.00174272 16291
Source of the keplerian elements: McCants